GW1791 Weather Reports


time (UTC)temp
C
wind
direction
speed
KPH
gust
KPH
rain 1hr
cm
rain 24hr
cm
rain mn
cm
humidity
%
barometer
mb
20260906125601 19 192 0.0 0.0 0.00 0.00 0.00 99 1019.9
20260906125100 19 184 0.0 0.0 0.00 0.00 0.00 99 1019.8
20260906124556 18 175 0.0 0.0 0.00 0.00 0.00 99 1019.9
20260906124051 19 165 3.2 8.0 0.00 0.00 0.00 99 1019.8
20260906123550 18 95 0.0 1.6 0.00 0.00 0.00 99 1019.8
20260906123045 18 140 0.0 1.6 0.00 0.00 0.00 99 1019.8
20260906122544 18 90 0.0 0.0 0.00 0.00 0.00 99 1019.5
20260906122041 18 68 0.0 0.0 0.00 0.00 0.00 99 1019.7
20260906121536 18 145 0.0 0.0 0.00 0.00 0.00 99 1019.6
20260906121033 18 67 0.0 0.0 0.00 0.00 0.00 99 1019.7
20260906120528 18 68 0.0 0.0 0.00 0.00 0.00 99 1019.6
20260906120025 18 106 0.0 0.0 0.00 0.00 0.00 99 1019.6
20260906115525 18 88 0.0 0.0 0.00 0.00 0.00 99 1019.4
20260906115020 18 91 0.0 0.0 0.00 0.00 0.00 99 1019.5
20260906114514 18 82 0.0 0.0 0.00 0.00 0.00 99 1019.3
20260906114010 18 117 0.0 0.0 0.00 0.00 0.00 99 1019.3
20260906113509 19 114 0.0 0.0 0.00 0.00 0.00 99 1019.4
20260906113004 19 99 0.0 0.0 0.00 0.00 0.00 99 1019.2
20260906112459 19 121 0.0 0.0 0.00 0.00 0.00 99 1019.1
20260906111955 19 185 0.0 0.0 0.00 0.00 0.00 99 1019.3
20260906111454 19 157 0.0 0.0 0.00 0.00 0.00 99 1019.3
20260906110949 19 185 0.0 0.0 0.00 0.00 0.00 99 1019.3
20260906110445 19 115 0.0 0.0 0.00 0.00 0.00 99 1019.2
20260906105944 19 136 0.0 0.0 0.00 0.00 0.00 99 1019.2
20260906105440 19 149 0.0 0.0 0.00 0.00 0.00 99 1019.3
20260906104936 19 147 0.0 0.0 0.00 0.00 0.00 99 1019.0
20260906104434 19 159 0.0 0.0 0.00 0.00 0.00 99 1018.8
20260906103933 19 91 0.0 0.0 0.00 0.00 0.00 99 1019.0
20260906103432 19 118 0.0 0.0 0.00 0.00 0.00 99 1019.0
20260906102927 19 102 0.0 0.0 0.00 0.00 0.00 99 1019.0
20260906102427 19 164 0.0 0.0 0.00 0.00 0.00 99 1019.0
20260906101921 19 163 0.0 0.0 0.00 0.00 0.00 99 1019.0
20260906101417 19 129 0.0 0.0 0.00 0.00 0.00 99 1019.0
20260906100912 19 177 0.0 0.0 0.00 0.00 0.00 99 1018.8
20260906100412 19 122 0.0 0.0 0.00 0.00 0.00 99 1019.1
20260906095906 19 155 0.0 0.0 0.00 0.00 0.00 99 1018.8
20260906095402 20 113 0.0 0.0 0.00 0.00 0.00 99 1018.7
20260906094856 20 175 0.0 0.0 0.00 0.00 0.00 99 1018.6
20260906094351 20 194 0.0 0.0 0.00 0.00 0.00 99 1018.5
20260906093847 20 118 0.0 0.0 0.00 0.00 0.00 99 1018.4
20260906093343 20 84 0.0 0.0 0.00 0.00 0.00 99 1018.2
20260906092837 20 86 0.0 0.0 0.00 0.00 0.00 99 1018.2
20260906092331 20 136 0.0 0.0 0.00 0.00 0.00 99 1018.0
20260906091827 20 123 0.0 0.0 0.00 0.00 0.00 99 1018.1
20260906091323 20 140 0.0 0.0 0.00 0.00 0.00 99 1018.2
20260906090820 20 104 0.0 1.6 0.00 0.00 0.00 99 1017.8
20260906090318 20 143 0.0 0.0 0.00 0.00 0.00 99 1017.9
20260906085813 20 80 0.0 0.0 0.00 0.00 0.00 99 1018.0
20260906085311 20 120 0.0 0.0 0.00 0.00 0.00 99 1018.0
20260906084807 20 76 0.0 0.0 0.00 0.00 0.00 99 1018.1
20260906084306 20 96 0.0 0.0 0.00 0.00 0.00 99 1017.9
20260906083801 20 136 0.0 0.0 0.00 0.00 0.00 99 1018.1
20260906083257 20 86 0.0 0.0 0.00 0.00 0.00 99 1018.0
20260906082751 20 62 0.0 0.0 0.00 0.00 0.00 99 1017.9
20260906082246 20 101 0.0 0.0 0.00 0.00 0.00 99 1017.9
20260906081742 20 111 0.0 0.0 0.00 0.00 0.00 99 1017.9
20260906081238 20 137 0.0 0.0 0.00 0.00 0.00 99 1018.0
20260906080734 20 131 0.0 0.0 0.00 0.00 0.00 99 1018.0
20260906080230 20 90 0.0 0.0 0.00 0.00 0.00 99 1018.1
20260906075724 20 77 0.0 0.0 0.00 0.00 0.00 99 1018.0
20260906075224 20 93 0.0 0.0 0.00 0.00 0.00 99 1017.9
20260906074719 20 84 0.0 0.0 0.00 0.00 0.00 99 1018.0
20260906074218 20 100 0.0 0.0 0.00 0.00 0.00 99 1018.1
20260906073713 20 76 0.0 0.0 0.00 0.00 0.00 99 1018.3
20260906073208 20 59 0.0 0.0 0.00 0.00 0.00 99 1018.2
20260906072704 20 128 0.0 0.0 0.00 0.00 0.00 99 1018.1
20260906072159 20 124 0.0 0.0 0.00 0.00 0.00 99 1018.2
20260906071655 20 73 0.0 0.0 0.00 0.00 0.00 99 1018.5
20260906071154 20 75 0.0 0.0 0.00 0.00 0.00 99 1018.4
20260906070652 20 93 0.0 0.0 0.00 0.00 0.00 99 1018.4
20260906070147 20 66 0.0 0.0 0.00 0.00 0.00 99 1018.4
20260906065646 20 73 0.0 0.0 0.00 0.00 0.00 99 1018.5
20260906065142 20 98 0.0 0.0 0.00 0.00 0.00 99 1018.5
20260906064638 20 93 0.0 0.0 0.00 0.00 0.00 99 1018.5
20260906064133 20 68 0.0 0.0 0.00 0.00 0.00 99 1018.6
20260906063628 20 123 0.0 0.0 0.00 0.00 0.00 99 1018.4
20260906063124 20 93 0.0 0.0 0.00 0.00 0.00 99 1018.7
20260906062619 20 63 0.0 0.0 0.00 0.00 0.00 99 1018.6
20260906062118 20 60 0.0 0.0 0.00 0.00 0.00 99 1018.8
20260906061615 20 85 0.0 0.0 0.00 0.00 0.00 99 1018.8
20260906061114 20 57 0.0 0.0 0.00 0.00 0.00 99 1018.7
20260906060611 20 89 0.0 0.0 0.00 0.00 0.00 99 1018.6
20260906060108 20 62 0.0 0.0 0.00 0.00 0.00 99 1018.6
20260906055603 20 64 0.0 0.0 0.00 0.00 0.00 99 1018.8
20260906055058 20 51 0.0 0.0 0.00 0.00 0.00 99 1018.7
20260906054558 20 79 0.0 0.0 0.00 0.00 0.00 99 1018.8
20260906054054 20 48 0.0 0.0 0.00 0.00 0.00 99 1018.7
20260906053550 20 69 0.0 0.0 0.00 0.00 0.00 99 1018.6
20260906053045 20 57 0.0 0.0 0.00 0.00 0.00 99 1018.6
20260906052541 20 54 0.0 0.0 0.00 0.00 0.00 99 1018.5
20260906052038 20 63 0.0 0.0 0.00 0.00 0.00 99 1018.6
20260906051533 20 53 0.0 0.0 0.00 0.00 0.00 99 1018.4
20260906051028 20 56 0.0 0.0 0.00 0.00 0.00 99 1018.2
20260906050523 20 88 0.0 0.0 0.00 0.00 0.00 99 1018.2
20260906050018 20 59 0.0 0.0 0.00 0.00 0.00 99 1018.4
20260906045516 20 62 0.0 0.0 0.00 0.00 0.00 99 1018.7
20260906045012 20 56 0.0 0.0 0.00 0.00 0.00 99 1018.3
20260906044508 20 52 0.0 0.0 0.00 0.00 0.00 99 1018.5
20260906044003 20 46 0.0 0.0 0.00 0.00 0.00 99 1018.4
20260906043459 20 71 0.0 0.0 0.00 0.00 0.00 99 1018.4
20260906042955 20 58 0.0 0.0 0.00 0.00 0.00 99 1018.5
20260906042453 20 60 0.0 0.0 0.00 0.00 0.00 99 1018.5
20260906041953 20 51 0.0 0.0 0.00 0.00 0.00 99 1018.3
20260906041450 20 55 0.0 0.0 0.00 0.00 0.00 99 1018.4
20260906040949 20 52 0.0 0.0 0.00 0.00 0.00 99 1018.2
20260906040444 20 47 0.0 0.0 0.00 0.00 0.00 99 1018.4
20260906035939 21 52 0.0 0.0 0.00 0.00 0.00 99 1018.2
20260906035435 21 68 0.0 0.0 0.00 0.00 0.00 99 1018.3
20260906034930 21 74 0.0 0.0 0.00 0.00 0.00 99 1018.1
20260906034425 21 45 0.0 0.0 0.00 0.00 0.00 99 1018.3
20260906033920 21 45 0.0 0.0 0.00 0.00 0.00 99 1018.3
20260906033415 21 45 0.0 0.0 0.00 0.00 0.00 99 1018.3
20260906032911 21 45 0.0 0.0 0.00 0.00 0.00 99 1018.3
20260906032407 21 45 0.0 0.0 0.00 0.00 0.00 99 1018.2
20260906031901 21 45 0.0 0.0 0.00 0.00 0.00 99 1018.2
20260906031356 21 45 0.0 0.0 0.00 0.00 0.00 99 1018.0
20260906030851 21 45 0.0 0.0 0.00 0.00 0.00 99 1017.9
20260906030346 21 45 0.0 0.0 0.00 0.00 0.00 99 1017.9
20260906025841 21 45 0.0 0.0 0.00 0.00 0.00 99 1018.0
20260906025335 22 45 0.0 0.0 0.00 0.00 0.00 99 1017.8
20260906024834 21 45 0.0 0.0 0.00 0.00 0.00 99 1017.9
20260906024333 21 45 0.0 0.0 0.00 0.00 0.00 99 1017.8
20260906023829 22 44 0.0 0.0 0.00 0.00 0.00 99 1017.7
20260906023325 22 43 0.0 0.0 0.00 0.00 0.00 99 1017.7
20260906022820 22 44 0.0 0.0 0.00 0.00 0.00 99 1017.7
20260906022315 22 55 0.0 0.0 0.00 0.00 0.00 99 1017.7
20260906021811 22 72 0.0 0.0 0.00 0.00 0.00 99 1017.5
20260906021310 22 75 0.0 0.0 0.00 0.00 0.00 99 1017.6
20260906020804 22 75 0.0 0.0 0.00 0.00 0.00 99 1017.6
20260906020304 22 146 0.0 0.0 0.00 0.00 0.00 99 1017.5
20260906015759 22 87 0.0 0.0 0.00 0.00 0.00 99 1017.6
20260906015257 22 91 0.0 0.0 0.00 0.00 0.00 99 1017.3
20260906014752 22 103 0.0 0.0 0.00 0.00 0.00 99 1017.2
20260906014248 22 112 0.0 0.0 0.00 0.00 0.00 99 1017.0
20260906013744 22 114 0.0 0.0 0.00 0.00 0.00 99 1017.1
20260906013243 22 125 0.0 0.0 0.00 0.00 0.00 99 1016.9
20260906012739 22 125 0.0 0.0 0.00 0.00 0.00 99 1017.0
20260906012234 22 125 0.0 0.0 0.00 0.00 0.00 98 1016.9
20260906011729 22 125 0.0 0.0 0.00 0.00 0.00 98 1016.7
20260906011229 22 125 0.0 0.0 0.00 0.00 0.00 98 1016.6
20260906010724 22 125 0.0 0.0 0.00 0.00 0.00 98 1016.6
20260906010220 22 125 0.0 0.0 0.00 0.00 0.00 97 1016.7
20260906005715 23 125 0.0 0.0 0.00 0.00 0.00 97 1016.5
20260906005214 23 125 0.0 0.0 0.00 0.00 0.00 97 1016.5
20260906004713 23 125 0.0 0.0 0.00 0.00 0.00 96 1016.4
20260906004209 23 125 0.0 0.0 0.00 0.00 0.00 96 1016.5
20260906003704 23 125 0.0 0.0 0.00 0.00 0.00 96 1016.4
20260906003159 23 125 0.0 0.0 0.00 0.00 0.00 95 1016.3
20260906002654 23 125 0.0 0.0 0.00 0.00 0.00 95 1016.5
20260906002148 23 125 0.0 0.0 0.00 0.00 0.00 94 1016.3
20260906001644 23 125 0.0 0.0 0.00 0.00 0.00 94 1016.4
20260906001144 23 125 0.0 0.0 0.00 0.00 0.00 94 1016.4
20260906000639 23 125 0.0 0.0 0.00 0.00 0.00 94 1016.1
20260906000135 23 125 0.0 0.0 0.00 0.00 0.00 94 1016.1
20260905235633 23 126 0.0 0.0 0.00 0.00 0.00 93 1016.2
20260905235129 24 138 0.0 0.0 0.00 0.00 0.00 93 1016.2
20260905234624 24 136 0.0 0.0 0.00 0.00 0.00 93 1016.2
20260905234119 24 153 0.0 0.0 0.00 0.00 0.00 93 1016.0
20260905233614 24 109 0.0 0.0 0.00 0.00 0.00 92 1015.8
20260905233108 24 130 0.0 0.0 0.00 0.00 0.00 92 1016.1
20260905232604 24 127 0.0 0.0 0.00 0.00 0.00 91 1016.0
20260905232059 25 78 0.0 0.0 0.00 0.00 0.00 91 1016.0
20260905231554 25 76 0.0 0.0 0.00 0.00 0.00 91 1016.0
20260905231051 25 86 0.0 0.0 0.00 0.00 0.00 90 1016.0
20260905230550 25 93 0.0 1.6 0.00 0.00 0.00 91 1015.6
20260905230048 25 127 0.0 0.0 0.00 0.00 0.00 91 1015.5
20260905225537 25 132 0.0 0.0 0.00 0.00 0.00 91 1015.6
20260905225032 25 76 0.0 1.6 0.00 0.00 0.00 91 1015.5
20260905224527 25 71 0.0 0.0 0.00 0.00 0.00 90 1015.5
20260905224026 25 113 0.0 0.0 0.00 0.00 0.00 90 1015.6
20260905223524 25 164 0.0 0.0 0.00 0.00 0.00 90 1015.7
20260905223019 25 134 0.0 0.0 0.00 0.00 0.00 90 1015.8
20260905222514 25 123 0.0 0.0 0.00 0.00 0.00 89 1015.8
20260905222009 25 65 0.0 0.0 0.00 0.00 0.00 89 1015.8
20260905221506 25 51 0.0 0.0 0.00 0.00 0.00 89 1015.7
20260905221002 25 95 0.0 1.6 0.00 0.00 0.00 89 1015.6
20260905220457 25 93 0.0 0.0 0.00 0.00 0.00 89 1015.6
20260905215956 25 66 0.0 0.0 0.00 0.00 0.00 89 1015.7
20260905215452 25 91 0.0 0.0 0.00 0.00 0.00 89 1015.6
20260905214948 25 110 0.0 0.0 0.00 0.00 0.00 89 1015.6
20260905214444 25 46 1.6 4.8 0.00 0.00 0.00 89 1015.6
20260905213944 25 131 0.0 3.2 0.00 0.00 0.00 90 1015.6
20260905213440 25 123 0.0 1.6 0.00 0.00 0.00 91 1015.5
20260905212935 25 82 0.0 1.6 0.00 0.00 0.00 90 1015.8
20260905212430 25 111 0.0 0.0 0.00 0.00 0.00 90 1015.7
20260905211929 25 78 0.0 3.2 0.00 0.00 0.00 90 1016.0
20260905211425 25 99 0.0 3.2 0.00 0.00 0.00 90 1015.8
20260905210921 25 97 0.0 0.0 0.00 0.00 0.00 90 1016.2
20260905210420 25 90 1.6 3.2 0.00 0.00 0.00 89 1016.1
20260905205920 25 54 0.0 3.2 0.00 0.00 0.00 89 1016.2
20260905205415 25 60 0.0 0.0 0.00 0.00 0.00 90 1016.3
20260905204914 25 97 0.0 0.0 0.00 0.00 0.00 89 1016.5
20260905204410 25 67 0.0 1.6 0.00 0.00 0.00 89 1016.4
20260905203909 25 76 0.0 1.6 0.00 0.00 0.00 89 1016.6
20260905203404 25 102 0.0 0.0 0.00 0.00 0.00 89 1016.7
20260905202900 26 188 0.0 0.0 0.00 0.00 0.00 88 1016.8
20260905202355 25 128 0.0 0.0 0.00 0.00 0.00 89 1016.6
20260905201851 25 153 1.6 3.2 0.00 0.00 0.00 90 1016.5
20260905201346 25 61 1.6 4.8 0.00 0.00 0.00 90 1016.3
20260905200846 25 60 3.2 8.0 0.00 0.00 0.00 91 1016.3
20260905200342 25 63 9.7 14.5 0.00 0.00 0.00 91 1016.3
20260905195840 24 60 9.7 11.3 0.00 0.00 0.00 92 1016.2
20260905195335 24 76 1.6 3.2 0.00 0.00 0.00 93 1016.4
20260905194831 24 48 8.0 11.3 0.00 0.00 0.00 93 1016.5
20260905194325 24 69 8.0 9.7 0.00 0.00 0.00 93 1016.7
20260905193824 24 59 8.0 9.7 0.00 0.00 0.00 94 1016.7
20260905193319 24 79 6.4 9.7 0.00 0.00 0.00 94 1016.9
20260905192815 24 61 8.0 9.7 0.00 0.00 0.00 94 1017.2
20260905192311 24 64 4.8 8.0 0.00 0.00 0.00 95 1017.4
20260905191810 23 79 11.3 12.9 0.00 0.00 0.00 95 1017.6
20260905191308 24 44 6.4 9.7 0.00 0.00 0.00 95 1017.5
20260905190807 24 81 11.3 14.5 0.00 0.00 0.00 95 1017.6
20260905190307 24 46 4.8 8.0 0.00 0.00 0.00 96 1017.8
20260905185806 23 19 6.4 9.7 0.00 0.00 0.00 96 1017.9
20260905185300 23 48 4.8 4.8 0.00 0.00 0.00 96 1018.0
20260905184755 23 53 6.4 9.7 0.00 0.00 0.00 97 1017.9
20260905184253 23 74 3.2 4.8 0.00 0.00 0.00 97 1018.2
20260905183747 23 50 8.0 11.3 0.00 0.00 0.00 97 1018.1
20260905183243 23 12 6.4 8.0 0.00 0.00 0.00 97 1018.0
20260905182742 23 37 8.0 9.7 0.00 0.00 0.00 97 1017.9
20260905182242 23 34 8.0 9.7 0.00 0.00 0.00 98 1017.9
20260905181737 23 75 8.0 9.7 0.00 0.00 0.00 98 1018.1
20260905181236 23 76 4.8 4.8 0.00 0.00 0.00 98 1018.1
20260905180731 23 77 8.0 9.7 0.00 0.00 0.00 98 1018.1
20260905180226 23 77 6.4 8.0 0.00 0.00 0.00 97 1017.9
20260905175721 23 44 4.8 4.8 0.00 0.00 0.00 97 1018.2
20260905175215 23 25 6.4 9.7 0.00 0.00 0.00 98 1018.1
20260905174711 23 44 4.8 4.8 0.00 0.00 0.00 98 1018.0
20260905174206 23 42 8.0 11.3 0.00 0.00 0.00 98 1018.0
20260905173702 23 85 8.0 11.3 0.00 0.00 0.00 98 1018.0
20260905173158 23 60 8.0 9.7 0.00 0.00 0.00 98 1017.8
20260905172657 23 58 6.4 8.0 0.00 0.00 0.00 98 1017.8
20260905172151 23 75 9.7 11.3 0.00 0.00 0.00 97 1017.8
20260905171647 23 59 9.7 11.3 0.00 0.00 0.00 98 1017.8
20260905171142 23 59 11.3 12.9 0.00 0.00 0.00 98 1017.8
20260905170640 23 60 8.0 11.3 0.00 0.00 0.00 98 1017.9
20260905170134 22 77 6.4 9.7 0.00 0.00 0.00 99 1018.0
20260905165628 22 66 8.0 11.3 0.00 0.00 0.00 99 1017.9
20260905165119 22 54 8.0 9.7 0.00 0.00 0.00 99 1018.0
20260905164614 22 73 8.0 11.3 0.00 0.00 0.00 99 1017.8
20260905164113 22 72 11.3 12.9 0.00 0.00 0.00 99 1017.9
20260905163609 22 52 9.7 11.3 0.00 0.00 0.00 99 1017.8
20260905163106 22 57 11.3 12.9 0.00 0.00 0.00 99 1018.0
20260905162602 22 72 8.0 9.7 0.00 0.00 0.00 99 1017.8
20260905162100 23 83 8.0 11.3 0.00 0.00 0.00 99 1018.0
20260905161555 23 57 6.4 11.3 0.00 0.00 0.00 99 1018.0
20260905161053 23 62 8.0 9.7 0.00 0.00 0.00 99 1017.9
20260905160551 23 65 8.0 11.3 0.00 0.00 0.00 99 1017.8
20260905160046 23 36 6.4 9.7 0.00 0.00 0.00 99 1017.9
20260905155546 23 60 9.7 11.3 0.00 0.00 0.00 99 1017.8
20260905155044 23 59 9.7 11.3 0.00 0.00 0.00 99 1017.9
20260905154539 23 75 4.8 8.0 0.00 0.00 0.00 99 1017.9
20260905154035 23 44 8.0 11.3 0.00 0.00 0.00 99 1017.9
20260905153531 23 59 8.0 11.3 0.00 0.00 0.00 99 1017.9
20260905153030 23 53 4.8 4.8 0.00 0.00 0.00 99 1017.7
20260905152525 23 31 4.8 4.8 0.00 0.00 0.00 99 1017.9
20260905152021 23 50 4.8 4.8 0.00 0.00 0.00 99 1017.7
20260905151516 22 58 4.8 8.0 0.00 0.00 0.00 99 1017.5
20260905151011 23 54 8.0 9.7 0.00 0.00 0.00 99 1017.6
20260905150506 23 62 8.0 8.0 0.00 0.00 0.00 99 1017.6
20260905150003 23 58 6.4 9.7 0.00 0.00 0.00 99 1017.1
20260905145457 23 47 8.0 11.3 0.00 0.00 0.00 99 1017.3
20260905144956 23 53 6.4 8.0 0.00 0.00 0.00 99 1017.1
20260905144452 23 73 6.4 8.0 0.00 0.00 0.00 99 1017.2
20260905143951 23 53 3.2 3.2 0.00 0.00 0.00 99 1017.1
20260905143450 23 54 6.4 8.0 0.00 0.00 0.00 99 1016.9
20260905142945 23 53 4.8 4.8 0.00 0.00 0.00 99 1016.8
20260905142443 23 60 0.0 0.0 0.00 0.00 0.00 99 1016.7
20260905141939 23 53 0.0 0.0 0.00 0.00 0.00 99 1016.9
20260905141434 23 67 0.0 0.0 0.00 0.00 0.00 99 1016.9
20260905140931 23 59 0.0 0.0 0.00 0.00 0.00 99 1016.7
20260905140425 23 48 0.0 0.0 0.00 0.00 0.00 99 1016.6
20260905135924 23 58 0.0 0.0 0.00 0.00 0.00 99 1016.5
20260905135420 23 74 0.0 0.0 0.00 0.00 0.00 99 1016.6
20260905134915 23 87 0.0 0.0 0.00 0.00 0.00 99 1016.5
20260905134414 23 65 0.0 0.0 0.00 0.00 0.00 99 1016.4
20260905133909 22 81 0.0 0.0 0.00 0.00 0.00 99 1016.4
20260905133404 22 75 0.0 0.0 0.00 0.00 0.00 99 1016.4
20260905132903 23 53 0.0 0.0 0.00 0.00 0.00 99 1016.4
20260905132359 22 55 0.0 0.0 0.00 0.00 0.00 99 1016.2
20260905131858 22 62 0.0 1.6 0.00 0.00 0.00 99 1016.2
20260905131354 22 65 1.6 3.2 0.00 0.00 0.00 99 1016.1
20260905130849 22 76 1.6 3.2 0.00 0.00 0.00 99 1016.1
20260905130348 22 73 6.4 9.7 0.00 0.00 0.00 99 1016.0